Date String (YYYY-MM-DD hh:mm:ss) UTC,Instrument flags,Ambient pressure (hPa),Sample flow (lpm),Bypass flow (lpm),Sample temperature (°C),Ambient temperature (°C),ASC tube jacket temperature (°C),LED temperature (°C),Box temperature (°C),Sample RH (%),Span deviation,Mass concentration (μg/m³),Mass concentration (μg/m³),Mass concentration (μg/m³)
DateTimeUTC,F1_M11,P_M11,Q1_M11,Q2_M11,T1_M11,T2_M11,T3_M11,T4_M11,T5_M11,U1_M11,ZSPAN_M11,X0_M11,X2_M11,X1_M11
2021-09-29 07:00:00,,0819.4,5.01,0.00,29.9,29.0,00.0,39.0,31.7,19.4,0001.1,0012.09,0004.27,0003.63
2021-09-29 07:01:00,,0819.4,4.99,0.00,29.9,29.0,00.0,39.0,31.7,19.4,0000.3,0012.82,0004.33,0003.66
2021-09-29 07:02:00,,0819.4,5.00,0.00,29.9,29.0,00.0,39.0,31.7,19.5,0000.0,0013.90,0004.38,0003.71
2021-09-29 07:03:00,,0819.4,5.00,0.00,29.9,29.0,00.0,39.0,31.7,19.6,0000.1,0014.13,0004.47,0003.75
2021-09-29 07:04:00,,0819.4,4.99,0.00,30.0,29.1,00.0,39.0,31.7,19.5,-000.0,0014.31,0004.51,0003.79
2021-09-29 07:05:00,,0819.4,5.00,0.00,30.0,29.1,00.0,39.1,31.8,19.2,0000.3,0014.75,0004.52,0003.79
2021-09-29 07:06:00,,0819.4,5.00,0.00,30.0,29.1,00.0,39.1,31.7,18.9,0000.3,0014.60,0004.45,0003.76
2021-09-29 07:07:00,,0819.4,5.00,0.00,30.0,29.1,00.0,39.1,31.8,19.0,0000.8,0015.30,0004.40,0003.72
2021-09-29 07:08:00,,0819.4,4.99,0.00,30.0,29.2,00.0,39.1,31.8,19.0,0000.6,0014.65,0004.37,0003.71
2021-09-29 07:09:00,,0819.4,5.01,0.00,30.0,29.2,00.0,39.1,31.8,19.0,0000.7,0013.33,0004.32,0003.69
2021-09-29 07:10:00,,0819.4,5.00,0.00,30.1,29.2,00.0,39.1,31.8,18.9,0000.9,0012.19,0004.28,0003.68
2021-09-29 07:11:00,,0819.4,4.99,0.00,30.1,29.2,00.0,39.1,31.9,18.9,0001.3,0012.42,0004.26,0003.68
2021-09-29 07:12:00,,0819.4,5.01,0.00,30.1,29.2,00.0,39.1,31.9,18.9,0001.8,0011.85,0004.24,0003.68
2021-09-29 07:13:00,,0819.4,4.99,0.00,30.1,29.2,00.0,39.2,31.9,18.9,0002.1,0010.74,0004.24,0003.69
2021-09-29 07:14:00,,0819.4,4.99,0.00,30.1,29.2,00.0,39.2,31.9,18.9,0002.1,0010.73,0004.17,0003.67
2021-09-29 07:15:00,,0819.4,5.00,0.00,30.1,29.2,00.0,39.2,31.9,19.0,0002.3,0011.09,0004.09,0003.65
2021-09-29 07:16:00,,0819.4,5.01,0.00,30.1,29.2,00.0,39.2,31.9,19.0,0002.6,0011.38,0004.06,0003.65
2021-09-29 07:17:00,,0819.4,5.00,0.00,30.1,29.2,00.0,39.2,31.9,19.0,0002.8,0011.48,0004.10,0003.67
2021-09-29 07:18:00,,0819.4,4.99,0.00,30.1,29.2,00.0,39.2,31.9,19.0,0002.8,0011.19,0004.13,0003.70
2021-09-29 07:19:00,,0819.4,5.00,0.00,30.1,29.2,00.0,39.2,31.9,19.0,0002.9,0011.02,0004.14,0003.71
2021-09-29 07:20:00,,0819.4,5.01,0.00,30.1,29.2,00.0,39.2,31.9,19.0,0003.2,0011.31,0004.19,0003.71
2021-09-29 07:21:00,,0819.4,4.98,0.00,30.1,29.0,00.0,39.2,31.8,18.9,0003.3,0011.15,0004.19,0003.70
2021-09-29 07:22:00,,0819.3,5.00,0.00,30.0,27.1,00.0,39.2,31.3,19.0,0003.3,0011.01,0004.16,0003.70
2021-09-29 07:23:00,,0819.3,5.01,0.00,29.8,26.1,00.0,39.1,31.0,19.2,0003.3,0010.86,0004.16,0003.70
2021-09-29 07:24:00,,0819.3,5.00,0.00,29.7,26.3,00.0,39.1,31.0,19.2,0003.4,0010.85,0004.12,0003.67
2021-09-29 07:25:00,,0819.3,5.00,0.00,29.6,26.7,00.0,39.0,31.1,19.3,0003.3,0010.78,0004.11,0003.65
2021-09-29 07:26:00,,0819.3,4.99,0.00,29.6,27.1,00.0,39.0,31.1,19.4,0003.4,0010.55,0004.15,0003.64
2021-09-29 07:27:00,,0819.3,4.99,0.00,29.6,27.5,00.0,38.9,31.2,19.4,0003.2,0010.04,0004.13,0003.63
2021-09-29 07:28:00,,0819.3,5.01,0.00,29.6,27.8,00.0,38.9,31.2,19.5,0003.0,0009.55,0004.11,0003.62
2021-09-29 07:29:00,,0819.3,4.99,0.00,29.6,28.0,00.0,38.9,31.3,19.5,0002.9,0008.38,0004.08,0003.61
2021-09-29 07:30:00,,0819.4,5.01,0.00,29.7,28.2,00.0,38.9,31.4,19.4,0003.0,0008.45,0004.07,0003.59
2021-09-29 07:31:00,,0819.4,4.99,0.00,29.7,28.4,00.0,38.9,31.4,19.3,0002.8,0009.07,0004.09,0003.59
2021-09-29 07:32:00,,0819.4,5.01,0.00,29.7,28.5,00.0,38.9,31.5,19.1,0003.1,0008.99,0004.10,0003.60
2021-09-29 07:33:00,,0819.4,4.99,0.00,29.7,28.6,00.0,38.9,31.5,19.1,0003.0,0008.78,0004.07,0003.59
2021-09-29 07:34:00,,0819.4,5.00,0.00,29.7,28.6,00.0,38.9,31.5,19.0,0003.0,0008.81,0004.06,0003.57
2021-09-29 07:35:00,,0819.4,5.01,0.00,29.8,28.7,00.0,38.9,31.6,19.0,0002.8,0009.49,0004.04,0003.57
2021-09-29 07:36:00,,0819.4,4.99,0.00,29.8,28.7,00.0,38.9,31.6,19.0,0002.7,0009.52,0004.03,0003.56
2021-09-29 07:37:00,,0819.4,5.00,0.00,29.8,28.8,00.0,38.9,31.6,19.0,0002.5,0009.20,0003.98,0003.55
2021-09-29 07:38:00,,0819.4,4.99,0.00,29.8,28.9,00.0,38.9,31.6,18.8,0002.4,0008.93,0003.95,0003.53
2021-09-29 07:39:00,,0819.4,5.01,0.00,29.9,28.9,00.0,38.9,31.6,18.8,0002.8,0009.26,0003.93,0003.51
2021-09-29 07:40:00,,0819.4,4.99,0.00,29.9,28.9,00.0,38.9,31.7,18.9,0002.8,0009.42,0003.89,0003.49
2021-09-29 07:41:00,,0819.4,5.01,0.00,29.9,29.0,00.0,38.9,31.7,18.6,0002.3,0009.78,0003.84,0003.46
2021-09-29 07:42:00,,0819.4,4.98,0.00,29.9,29.0,00.0,39.0,31.7,19.1,0002.2,0009.30,0003.80,0003.45
2021-09-29 07:43:00,,0819.4,5.01,0.00,30.0,29.1,00.0,39.0,31.8,19.2,0001.5,0009.37,0003.76,0003.45
2021-09-29 07:44:00,,0819.4,4.99,0.00,30.0,29.1,00.0,39.0,31.8,18.8,0001.6,0009.64,0003.77,0003.44
2021-09-29 07:45:00,,0819.4,5.00,0.00,30.0,29.1,00.0,39.0,31.7,18.5,0001.9,0009.66,0003.76,0003.43
2021-09-29 07:46:00,,0819.4,5.00,0.00,30.0,29.2,00.0,39.0,31.8,18.5,0002.2,0008.73,0003.75,0003.41
2021-09-29 07:47:00,,0819.4,5.00,0.00,30.0,29.2,00.0,39.0,31.8,18.8,0002.6,0008.63,0003.75,0003.41
2021-09-29 07:48:00,,0819.4,5.01,0.00,30.1,29.2,00.0,39.1,31.8,18.9,0002.7,0008.72,0003.77,0003.43
2021-09-29 07:49:00,,0819.4,5.00,0.00,30.1,29.3,00.0,39.1,31.9,19.1,0002.5,0008.84,0003.83,0003.44
2021-09-29 07:50:00,,0819.4,4.99,0.00,30.1,29.3,00.0,39.1,31.9,19.2,0001.7,0008.73,0003.90,0003.49
2021-09-29 07:51:00,,0819.4,5.00,0.00,30.1,29.3,00.0,39.1,31.9,19.2,0001.1,0008.58,0003.96,0003.52
2021-09-29 07:52:00,,0819.4,5.01,0.00,30.1,29.3,00.0,39.1,31.9,19.2,0001.7,0008.33,0004.02,0003.56
2021-09-29 07:53:00,,0819.5,5.00,0.00,30.2,29.3,00.0,39.2,31.9,19.0,0002.1,0008.11,0004.01,0003.57
2021-09-29 07:54:00,,0819.4,5.00,0.00,30.2,29.4,00.0,39.2,32.0,19.0,0002.3,0008.04,0004.04,0003.57
2021-09-29 07:55:00,,0819.4,4.99,0.00,30.2,29.4,00.0,39.2,32.0,19.1,0002.4,0007.87,0004.06,0003.59
2021-09-29 07:56:00,,0819.5,5.01,0.00,30.2,29.4,00.0,39.2,32.0,19.1,0002.1,0008.17,0004.09,0003.63
2021-09-29 07:57:00,,0819.5,4.99,0.00,30.2,29.4,00.0,39.2,32.0,19.3,0001.7,0008.93,0004.16,0003.67
2021-09-29 07:58:00,,0819.5,5.00,0.00,30.3,29.4,00.0,39.3,32.0,19.8,0001.3,0009.93,0004.24,0003.74
2021-09-29 07:59:00,,0819.5,5.01,0.00,30.3,29.4,00.0,39.3,32.1,19.7,0001.5,0010.94,0004.32,0003.79
